FW1140 Weather Reports


Display with metric or nautical units.
time (UTC)temp
F
wind
direction
speed
MPH
gust
MPH
rain 1hr
in
rain 24hr
in
rain mn
in
humidity
%
barometer
mb
20260509011558 62 304 6.0 12.0 0.00 0.00 0.00 35 1002.3
20260509010055 64 322 10.0 15.0 0.00 0.00 0.00 33 1002.1
20260509004600 65 302 11.0 17.0 0.00 0.00 0.00 32 1002.1
20260509003057 66 306 12.0 21.0 0.00 0.00 0.00 31 1002.2
20260509001554 67 314 16.0 21.0 0.00 0.00 0.00 31 1002.0
20260509000055 67 295 15.0 25.0 0.00 0.00 0.00 30 1002.0
20260508234553 68 304 16.0 25.0 0.00 0.00 0.00 29 1002.0
20260508233052 69 308 15.0 24.0 0.00 0.00 0.00 27 1002.0
20260508231551 69 299 19.0 27.0 0.00 0.00 0.00 26 1001.9
20260508230051 69 336 21.0 29.0 0.00 0.00 0.00 25 1001.9
20260508224620 69 321 19.0 27.0 0.00 0.00 0.00 26 1002.0
20260508223053 70 283 19.0 31.0 0.00 0.00 0.00 25 1001.9
20260508221550 70 340 20.0 26.0 0.00 0.00 0.00 24 1001.7
20260508220053 71 320 21.0 29.0 0.00 0.00 0.00 24 1001.8
20260508214551 71 316 22.0 31.0 0.00 0.00 0.00 24 1001.7
20260508213047 71 302 21.0 31.0 0.00 0.00 0.00 25 1001.7
20260508211552 71 329 15.0 29.0 0.00 0.00 0.00 28 1001.5
20260508210048 72 285 17.0 24.0 0.00 0.00 0.00 28 1001.5
20260508204546 71 293 13.0 27.0 0.00 0.00 0.00 29 1001.5
20260508203047 72 320 18.0 27.0 0.00 0.00 0.00 28 1001.5
20260508201545 72 276 18.0 31.0 0.00 0.00 0.00 27 1001.5
20260508200043 73 269 11.0 24.0 0.00 0.00 0.00 26 1001.6
20260508194542 72 317 16.0 24.0 0.00 0.00 0.00 26 1001.7
20260508193040 71 326 15.0 24.0 0.00 0.00 0.00 27 1001.9
20260508191546 71 340 19.0 30.0 0.00 0.00 0.00 27 1002.0
20260508190141 70 307 11.0 24.0 0.00 0.00 0.00 28 1002.0
20260508184539 72 323 21.0 29.0 0.00 0.00 0.00 27 1002.0
20260508183035 71 280 14.0 18.0 0.00 0.00 0.00 28 1002.3
20260508181535 70 266 11.0 21.0 0.00 0.00 0.00 27 1002.4
20260508180036 71 300 13.0 25.0 0.00 0.00 0.00 27 1002.6
20260508174530 68 279 13.0 18.0 0.00 0.00 0.00 29 1002.7
20260508173028 68 236 13.0 19.0 0.00 0.00 0.00 26 1002.9
20260508171528 69 268 13.0 19.0 0.00 0.00 0.00 26 1003.2
20260508170023 67 253 13.0 21.0 0.00 0.00 0.00 27 1003.5
20260508164521 66 263 12.0 21.0 0.00 0.00 0.00 28 1003.6
20260508163029 65 266 12.0 18.0 0.00 0.00 0.00 29 1003.7
20260508161520 66 236 15.0 20.0 0.00 0.00 0.00 28 1003.7
20260508160023 67 264 11.0 19.0 0.00 0.00 0.00 26 1003.7
20260508154519 66 265 11.0 21.0 0.00 0.00 0.00 30 1003.8
20260508153015 66 276 11.0 18.0 0.00 0.00 0.00 29 1004.0
20260508151512 65 260 12.0 19.0 0.00 0.00 0.00 30 1004.3
20260508150025 63 254 10.0 18.0 0.00 0.00 0.00 31 1004.5
20260508144506 63 226 13.0 20.0 0.00 0.00 0.00 30 1004.7
20260508143007 62 233 14.0 20.0 0.00 0.00 0.00 30 1004.8
20260508141605 62 250 13.0 19.0 0.00 0.00 0.00 31 1004.8
20260508140106 61 229 11.0 16.0 0.00 0.00 0.00 37 1004.9
20260508134549 60 240 11.0 18.0 0.00 0.00 0.00 38 1005.1
20260508133049 57 240 12.0 17.0 0.00 0.00 0.00 42 1005.5
20260508131541 55 221 11.0 14.0 0.00 0.00 0.00 45 1005.5
20260508130037 51 232 11.0 16.0 0.00 0.00 0.00 49 1005.6
20260508124534 49 237 14.0 18.0 0.00 0.00 0.00 52 1005.4
20260508123034 48 220 11.0 15.0 0.00 0.00 0.00 52 1005.3
20260508121529 48 226 12.0 17.0 0.00 0.00 0.00 53 1005.3
20260508120028 46 214 13.0 18.0 0.00 0.00 0.00 54 1005.4
20260508114524 45 226 9.0 13.0 0.00 0.00 0.00 57 1005.4
20260508113021 47 210 12.0 17.0 0.00 0.00 0.00 52 1005.4
20260508111519 47 213 12.0 17.0 0.00 0.00 0.00 51 1005.4
20260508110017 47 219 12.0 16.0 0.00 0.00 0.00 48 1005.6
20260508104517 47 210 11.0 15.0 0.00 0.00 0.00 47 1005.8
20260508103019 48 217 12.0 15.0 0.00 0.00 0.00 47 1005.8
20260508101517 46 217 10.0 13.0 0.00 0.00 0.00 50 1005.9
20260508100022 46 231 9.0 14.0 0.00 0.00 0.00 50 1005.9
20260508094513 46 226 9.0 13.0 0.00 0.00 0.00 48 1005.8
20260508093013 47 224 11.0 14.0 0.00 0.00 0.00 45 1005.8
20260508091510 48 207 12.0 15.0 0.00 0.00 0.00 44 1005.9
20260508090008 47 214 11.0 13.0 0.00 0.00 0.00 48 1005.9
20260508084506 47 214 11.0 15.0 0.00 0.00 0.00 50 1005.9
20260508083002 46 219 11.0 14.0 0.00 0.00 0.00 51 1006.0
20260508081501 46 208 11.0 13.0 0.00 0.00 0.00 51 1006.0
20260508080111 45 212 9.0 13.0 0.00 0.00 0.00 52 1006.2
20260508074614 45 214 11.0 14.0 0.00 0.00 0.00 53 1006.3
20260508073059 44 207 10.0 13.0 0.00 0.00 0.00 53 1006.3
20260508071554 44 209 10.0 13.0 0.00 0.00 0.00 51 1006.5
20260508070055 44 224 9.0 12.0 0.00 0.00 0.00 52 1006.6
20260508064557 43 209 9.0 12.0 0.00 0.00 0.00 54 1006.7
20260508063053 43 217 9.0 11.0 0.00 0.00 0.00 54 1006.8
20260508061548 44 210 8.0 11.0 0.00 0.00 0.00 52 1006.9
20260508060046 43 203 8.0 11.0 0.00 0.00 0.00 53 1007.0
20260508054548 43 210 8.0 10.0 0.00 0.00 0.00 54 1007.0
20260508053052 43 214 8.0 11.0 0.00 0.00 0.00 54 1007.0
20260508051546 43 217 8.0 10.0 0.00 0.00 0.00 54 1007.1
20260508050139 42 217 7.0 9.0 0.00 0.00 0.00 56 1007.1
20260508044536 42 214 7.0 9.0 0.00 0.00 0.00 57 1007.3
20260508043035 41 226 6.0 8.0 0.00 0.00 0.00 63 1007.6
20260508041534 41 229 6.0 7.0 0.00 0.00 0.00 64 1007.6
20260508040048 41 229 6.0 7.0 0.00 0.00 0.00 63 1007.7
20260508034541 40 229 6.0 7.0 0.00 0.00 0.00 63 1007.7
20260508033033 41 236 6.0 7.0 0.00 0.00 0.00 59 1007.8
20260508031534 42 229 6.0 7.0 0.00 0.00 0.00 56 1007.8
20260508030033 42 231 6.0 7.0 0.00 0.00 0.00 55 1007.8
20260508024532 42 232 6.0 7.0 0.00 0.00 0.00 55 1007.8
20260508023033 43 228 6.0 7.0 0.00 0.00 0.00 54 1007.8
20260508021533 44 221 4.0 5.0 0.00 0.00 0.00 51 1007.6
20260508020030 44 241 3.0 5.0 0.00 0.00 0.00 47 1007.6
20260508014530 46 317 2.0 3.0 0.00 0.00 0.00 44 1007.5
20260508013032 50 317 0.0 1.0 0.00 0.00 0.00 40 1007.5